Showing default

COSMOS 2506, 40699

Orbit data source: Space-Track

COSMOS 2506, 40699 is a payload satellite owned by VVKO VKS (CIS) in SSO that was launched on Tue, 23 Jun 2015 UTC via a SOYUZ-2-1B launch vehicle from the Plesetsk Missile And Space Complex (PKMTR). Payload-class satellites include a variety of spacecraft equipped with specific instruments for various scientific and technological missions. These include communications satellites like Starlink; space stations such as the ISS; scientific satellites like the Hubble; Earth observation satellites from companies like Planet Labs, Umbra, and HawkEye 360; GPS; miniature CubeSats for education and research; and military/defense satellites.

Loading next visibility...
Identifier
40699, 2015-029A
Orbit
SSO
Country
Flag of CISCIS
Related business
Manufacturer
TsSKB-Progress
Mission
Operational Defense Imaging
Bus & Motor
PERSONA-1, 11D428
Mass
~7,000 kg wet, ~7,000 kg dry
Launch date (UTC)
2015-06-23 (11 years ago)
Launch vehicle
SOYUZ-2-1B
Launch site
Plesetsk Missile And Space Complex (PKMTR)
Object type
Payload
Rocket body
Debris
Shape & HBR
Cyl + 2 Pan, 3.1 m
Radar Cross Section
16.222 m², Large (>1 m²)

Expand to show TLE details & history
Last TLE update: 23 hours ago

TLE from 23 hours ago
0 COSMOS 2506
1 40699U 15029A   26172.50431390  .00000388  00000-0  10133-3 0  9998
2 40699  98.0458 213.1674 0008059 133.8182 226.3683 14.54388423583510
Epoch: 2026-06-21T12:06Z
TLE epoch observation values (Epoch: 2026-06-21T12:06:12.720Z)
Latitude
-0.00005°
Longitude
121.91077°
Altitude
718.279 km
Speed
7.494 km/s
True Right ascension
14h 12m 40s
True Declination
0° 00' 00"
Sunlit
Object was in full shadow at epoch
Visualization orbit readout
Latitude
Unknown
Longitude
Unknown
Altitude
Unknown
Speed
Unknown
Apparent Right ascension
Unknown
Apparent Declination
Unknown
Sunlit
N/A
Visualization observer readout
Local Sidereal Time
21:47:53
Azimuth
Unknown
Elevation
Unknown
Doppler factor
Unknown
Orbital elements
Apogee altitude
714.144 km
Perigee altitude
702.722 km
Semi-major axis
7,086.57 km
Eccentricity
0.00081
Inclination
98.0458°
RAAN
213.1674°
Arg. of periapsis
133.8182°
True anomaly
226.3015°
Mean anomaly
226.3683°
Eccentric anomaly
226.3349°
Mean motion
3.63822 °/min
Orbital period
98.95 mins
BSTAR
0.00010133
Loading maneuver chart data...
Computing Atmospheric mass density...
Loading historical data...
Loading historical data...
Loading historical data...
Loading historical data...
Loading historical data...
Loading historical data...
Loading historical data...
Other satellites on launch #29 in the year 2015 (2015-06-23 UTC)

Documentation

Showing up to 5 results
|